Date String (YYYY-MM-DD hh:mm:ss) UTC,Instrument flags,absolute air pressure of the measurement (hPa),sample flow rate (lpm),inlet stack bypass flow (lpm),air temperature of the measurement (°C),ambient temperature measured by the external sensor (°C),aerosol sample conditioner tube jacket temperature (°C),OPC LED temperature (°C),internal box temperature (°C),relative humidity of the measurement (%),span deviation,mass concentration of particles derived from Lorenz-Mie calculation of OPC scattering (μg/m³),mass concentration of particles derived from Lorenz-Mie calculation of OPC scattering (μg/m³),mass concentration of particles derived from Lorenz-Mie calculation of OPC scattering (μg/m³)
DateTimeUTC,F1_M11,P_M11,Q1_M11,Q2_M11,T1_M11,T2_M11,T3_M11,T4_M11,T5_M11,U1_M11,ZSPAN_M11,X0_M11,X2_M11,X1_M11
2024-06-02 08:00:00,SystemResetWarning,0826.6,5.00,000.00,030.8,030.0,000.0,039.2,032.5,019.8,0000.0,0012.69,0004.33,0003.43
2024-06-02 08:01:00,SystemResetWarning,0826.6,5.00,000.00,030.8,030.0,000.0,039.2,032.5,019.8,0000.0,0012.96,0004.37,0003.42
2024-06-02 08:02:00,SystemResetWarning,0826.6,5.00,000.00,030.8,030.0,000.0,039.2,032.5,019.8,0000.0,0014.05,0004.42,0003.43
2024-06-02 08:03:00,SystemResetWarning,0826.5,5.00,000.00,030.8,030.0,000.0,039.2,032.5,019.8,0000.0,0014.64,0004.43,0003.42
2024-06-02 08:04:00,SystemResetWarning,0826.4,5.00,000.00,030.8,030.0,000.0,039.2,032.5,019.9,0000.0,0014.56,0004.45,0003.42
2024-06-02 08:05:00,SystemResetWarning,0826.4,5.00,000.00,030.8,030.0,000.0,039.2,032.5,020.0,0000.0,0014.29,0004.45,0003.41
2024-06-02 08:06:00,SystemResetWarning,0826.4,5.00,000.00,030.8,030.0,000.0,039.2,032.5,020.0,0000.0,0014.92,0004.46,0003.42
2024-06-02 08:07:00,SystemResetWarning,0826.3,5.00,000.00,030.8,030.0,000.0,039.2,032.5,020.0,0000.0,0015.18,0004.48,0003.44
2024-06-02 08:08:00,SystemResetWarning,0826.3,5.00,000.00,030.8,030.0,000.0,039.3,032.5,020.0,0000.0,0015.14,0004.50,0003.44
2024-06-02 08:09:00,SystemResetWarning,0826.3,5.00,000.00,030.8,030.0,000.0,039.3,032.5,019.9,0000.0,0014.40,0004.48,0003.44
2024-06-02 08:10:00,SystemResetWarning,0826.3,5.01,000.00,030.8,030.0,000.0,039.3,032.5,020.0,0000.0,0014.41,0004.47,0003.45
2024-06-02 08:11:00,SystemResetWarning,0826.3,5.01,000.00,030.8,030.0,000.0,039.3,032.5,019.9,0000.0,0014.32,0004.49,0003.46
2024-06-02 08:12:00,SystemResetWarning,0826.3,5.00,000.00,030.8,030.0,000.0,039.3,032.4,019.9,0000.0,0014.38,0004.47,0003.45
2024-06-02 08:13:00,SystemResetWarning,0826.3,5.00,000.00,030.8,030.0,000.0,039.3,032.5,019.9,0000.0,0013.62,0004.43,0003.45
2024-06-02 08:14:00,SystemResetWarning,0826.2,4.99,000.00,030.8,030.0,000.0,039.3,032.5,019.9,0000.0,0014.43,0004.42,0003.44
2024-06-02 08:15:00,SystemResetWarning,0826.2,4.99,000.00,030.8,030.0,000.0,039.3,032.5,019.9,0000.0,0015.00,0004.40,0003.44
2024-06-02 08:16:00,SystemResetWarning,0826.2,5.00,000.00,030.8,030.0,000.0,039.3,032.5,019.9,0000.0,0015.09,0004.39,0003.45
2024-06-02 08:17:00,SystemResetWarning,0826.3,5.00,000.00,030.8,030.0,000.0,039.3,032.5,019.8,0000.0,0014.71,0004.41,0003.43
2024-06-02 08:18:00,SystemResetWarning,0826.3,5.01,000.00,030.8,030.0,000.0,039.2,032.4,019.7,0000.0,0015.27,0004.44,0003.43
2024-06-02 08:19:00,SystemResetWarning,0826.3,5.01,000.00,030.8,030.0,000.0,039.2,032.5,019.6,0000.0,0015.30,0004.44,0003.43
2024-06-02 08:20:00,SystemResetWarning,0826.2,5.00,000.00,030.8,030.0,000.0,039.2,032.5,019.4,0000.0,0015.22,0004.49,0003.44
2024-06-02 08:21:00,SystemResetWarning,0826.2,5.00,000.00,030.8,030.0,000.0,039.2,032.5,019.2,0000.0,0014.99,0004.51,0003.46
2024-06-02 08:22:00,SystemResetWarning,0826.2,5.00,000.00,030.8,030.0,000.0,039.2,032.5,019.1,0000.0,0015.23,0004.57,0003.49
2024-06-02 08:23:00,SystemResetWarning,0826.2,5.00,000.00,030.8,030.0,000.0,039.2,032.5,019.0,0000.0,0014.53,0004.58,0003.51
2024-06-02 08:24:00,SystemResetWarning,0826.2,5.00,000.00,030.8,030.0,000.0,039.2,032.5,018.9,0000.0,0014.81,0004.60,0003.53
2024-06-02 08:25:00,SystemResetWarning,0826.2,5.00,000.00,030.8,030.0,000.0,039.2,032.5,018.8,0000.0,0013.67,0004.60,0003.55
2024-06-02 08:26:00,SystemResetWarning,0826.3,4.99,000.00,030.8,030.0,000.0,039.2,032.5,018.9,0000.0,0012.81,0004.61,0003.57
2024-06-02 08:27:00,SystemResetWarning,0826.3,5.00,000.00,030.8,030.0,000.0,039.2,032.5,018.8,0000.0,0012.54,0004.61,0003.59
2024-06-02 08:28:00,SystemResetWarning,0826.4,5.00,000.00,030.8,030.0,000.0,039.2,032.5,019.0,0000.0,0012.61,0004.63,0003.61
2024-06-02 08:29:00,SystemResetWarning,0826.4,5.01,000.00,030.8,030.0,000.0,039.2,032.5,019.0,0000.0,0012.15,0004.62,0003.61
2024-06-02 08:30:00,SystemResetWarning,0826.4,5.00,000.00,030.8,030.0,000.0,039.2,032.5,019.0,0000.0,0012.02,0004.62,0003.61
2024-06-02 08:31:00,SystemResetWarning,0826.4,5.00,000.00,030.8,030.0,000.0,039.2,032.5,019.0,0000.0,0011.42,0004.57,0003.61
2024-06-02 08:32:00,SystemResetWarning,0826.4,5.00,000.00,030.8,030.0,000.0,039.2,032.5,019.0,0000.0,0012.42,0004.58,0003.60
2024-06-02 08:33:00,SystemResetWarning,0826.4,5.00,000.00,030.8,030.0,000.0,039.2,032.5,019.0,0000.0,0012.85,0004.50,0003.56
2024-06-02 08:34:00,SystemResetWarning,0826.3,5.01,000.00,030.8,030.0,000.0,039.2,032.5,019.0,0000.0,0013.00,0004.48,0003.55
2024-06-02 08:35:00,SystemResetWarning,0826.2,5.00,000.00,030.8,030.0,000.0,039.2,032.5,019.0,0000.0,0012.58,0004.45,0003.53
2024-06-02 08:36:00,SystemResetWarning,0826.2,5.00,000.00,030.8,030.0,000.0,039.2,032.5,019.0,0000.0,0012.50,0004.42,0003.51
2024-06-02 08:37:00,SystemResetWarning,0826.2,4.99,000.00,030.8,030.0,000.0,039.2,032.5,019.1,0000.0,0012.72,0004.40,0003.49
2024-06-02 08:38:00,SystemResetWarning,0826.2,4.99,000.00,030.8,030.0,000.0,039.2,032.5,019.0,0000.0,0013.26,0004.41,0003.48
2024-06-02 08:39:00,SystemResetWarning,0826.2,5.01,000.00,030.8,030.0,000.0,039.2,032.5,018.9,0000.0,0013.11,0004.41,0003.46
2024-06-02 08:40:00,SystemResetWarning,0826.2,5.01,000.00,030.8,030.0,000.0,039.2,032.5,018.9,0000.0,0012.95,0004.41,0003.45
2024-06-02 08:41:00,SystemResetWarning,0826.2,5.00,000.00,030.8,030.0,000.0,039.2,032.5,018.8,0000.0,0012.83,0004.40,0003.46
2024-06-02 08:42:00,SystemResetWarning,0826.2,5.00,000.00,030.8,030.0,000.0,039.2,032.5,018.6,0000.0,0012.67,0004.40,0003.46
2024-06-02 08:43:00,SystemResetWarning,0826.2,4.99,000.00,030.8,030.0,000.0,039.3,032.5,018.6,0000.0,0011.72,0004.43,0003.46
2024-06-02 08:44:00,SystemResetWarning,0826.2,4.99,000.00,030.8,030.0,000.0,039.3,032.5,018.6,0000.0,0011.07,0004.48,0003.48
2024-06-02 08:45:00,SystemResetWarning,0826.2,5.00,000.00,030.8,030.0,000.0,039.3,032.5,018.5,0000.0,0011.51,0004.46,0003.47
2024-06-02 08:46:00,SystemResetWarning,0826.2,5.00,000.00,030.8,030.0,000.0,039.3,032.5,018.4,0000.0,0011.06,0004.46,0003.48
2024-06-02 08:47:00,SystemResetWarning,0826.2,4.99,000.00,030.8,030.0,000.0,039.3,032.5,018.1,0000.0,0011.78,0004.48,0003.49
2024-06-02 08:48:00,SystemResetWarning,0826.2,5.00,000.00,030.8,030.0,000.0,039.3,032.5,017.8,0000.0,0012.53,0004.49,0003.49
2024-06-02 08:49:00,SystemResetWarning,0826.2,5.00,000.00,030.8,030.0,000.0,039.3,032.5,017.6,0000.0,0013.14,0004.48,0003.51
2024-06-02 08:50:00,SystemResetWarning,0826.2,5.00,000.00,030.8,030.0,000.0,039.3,032.5,017.6,0000.0,0013.17,0004.47,0003.54
2024-06-02 08:51:00,SystemResetWarning,0826.2,5.00,000.00,030.8,030.0,000.0,039.3,032.5,017.7,0000.0,0013.44,0004.47,0003.57
2024-06-02 08:52:00,SystemResetWarning,0826.2,5.00,000.00,030.8,030.0,000.0,039.3,032.5,017.6,0000.0,0014.00,0004.58,0003.60
2024-06-02 08:53:00,SystemResetWarning,0826.1,5.00,000.00,030.8,030.0,000.0,039.3,032.5,017.5,0000.0,0014.70,0004.67,0003.62
2024-06-02 08:54:00,SystemResetWarning,0826.1,5.01,000.00,030.8,030.0,000.0,039.3,032.5,017.5,0000.0,0014.80,0004.64,0003.64
2024-06-02 08:55:00,SystemResetWarning,0826.2,5.00,000.00,030.8,030.0,000.0,039.3,032.5,017.6,0000.0,0015.59,0004.63,0003.67
2024-06-02 08:56:00,SystemResetWarning,0826.2,5.00,000.00,030.8,030.0,000.0,039.3,032.5,017.7,0000.0,0016.15,0004.69,0003.70
2024-06-02 08:57:00,SystemResetWarning,0826.2,5.00,000.00,030.8,030.0,000.0,039.3,032.5,018.0,0000.0,0016.34,0004.73,0003.74
2024-06-02 08:58:00,SystemResetWarning,0826.2,5.00,000.00,030.8,030.0,000.0,039.3,032.5,018.1,0000.0,0015.98,0004.72,0003.76
2024-06-02 08:59:00,SystemResetWarning,0826.2,5.00,000.00,030.8,030.0,000.0,039.3,032.5,018.0,0000.0,0015.46,0004.72,0003.78
